TimeCDT,TemperatureF,Dew PointF,Humidity,Sea Level PressureIn,VisibilityMPH,Wind Direction,Wind SpeedMPH,Gust SpeedMPH,PrecipitationIn,Events,Conditions,WindDirDegrees,DateUTC
12:13 AM,26.6,21.2,80,29.88,2.5,ENE,3.5,-,N/A,,Unknown,60,2013-04-12 05:13:00
12:33 AM,26.6,23.0,86,29.87,2.0,Calm,Calm,-,N/A,,Unknown,0,2013-04-12 05:33:00
12:53 AM,26.6,23.0,86,29.87,1.8,ENE,4.6,-,N/A,,Unknown,60,2013-04-12 05:53:00
1:13 AM,26.6,23.0,86,29.87,2.0,ENE,4.6,-,0.01,,Unknown,60,2013-04-12 06:13:00
1:35 AM,26.6,23.0,86,29.85,2.0,NE,5.8,-,0.01,,Unknown,50,2013-04-12 06:35:00
1:53 AM,26.6,23.0,86,29.84,1.8,ENE,4.6,-,0.01,,Unknown,60,2013-04-12 06:53:00
2:13 AM,26.6,21.2,80,29.83,1.8,ENE,4.6,-,N/A,,Unknown,60,2013-04-12 07:13:00
2:33 AM,26.6,21.2,80,29.82,3.0,NE,3.5,-,N/A,,Unknown,50,2013-04-12 07:33:00
2:53 AM,26.6,21.2,80,29.82,4.0,ENE,3.5,-,N/A,Snow,Light Snow,60,2013-04-12 07:53:00
3:13 AM,26.6,21.2,80,29.81,2.5,NE,9.2,-,N/A,,Unknown,50,2013-04-12 08:13:00
3:33 AM,24.8,21.2,86,29.81,4.0,ENE,3.5,-,0.01,Snow,Light Snow,60,2013-04-12 08:33:00
3:53 AM,24.8,19.4,80,29.81,3.0,East,4.6,-,0.01,Snow,Light Snow,80,2013-04-12 08:53:00
4:13 AM,24.8,19.4,80,29.80,3.0,ENE,6.9,-,N/A,Snow,Light Snow,60,2013-04-12 09:13:00
4:33 AM,24.8,21.2,86,29.81,1.0,ENE,6.9,-,N/A,Snow,Heavy Snow,60,2013-04-12 09:33:00
4:53 AM,24.8,21.2,86,29.80,1.0,NE,4.6,-,N/A,,Overcast,50,2013-04-12 09:53:00
5:13 AM,24.8,21.2,86,29.80,1.2,ENE,5.8,-,N/A,,Overcast,60,2013-04-12 10:13:00
5:33 AM,24.8,21.2,86,29.80,1.2,Calm,Calm,-,0.01,,Overcast,0,2013-04-12 10:33:00
5:53 AM,24.8,19.4,80,29.80,1.2,Calm,Calm,-,0.01,,Overcast,0,2013-04-12 10:53:00
6:13 AM,23.0,19.4,86,29.80,1.2,ENE,3.5,-,0.01,,Mostly Cloudy,70,2013-04-12 11:13:00
6:33 AM,23.0,19.4,86,29.79,1.2,NE,3.5,-,0.01,,Mostly Cloudy,50,2013-04-12 11:33:00
6:54 AM,23.0,19.4,86,29.80,1.0,NE,4.6,-,0.02,,Mostly Cloudy,50,2013-04-12 11:54:00
7:13 AM,23.0,19.4,86,29.80,1.0,Calm,Calm,-,0.01,,Mostly Cloudy,0,2013-04-12 12:13:00
7:33 AM,23.0,19.4,86,29.80,0.8,Calm,Calm,-,0.01,,Mostly Cloudy,0,2013-04-12 12:33:00
7:53 AM,23.0,19.4,86,29.80,1.0,ENE,4.6,-,0.02,,Overcast,60,2013-04-12 12:53:00
8:13 AM,24.8,19.4,80,29.80,1.0,NE,4.6,-,0.01,,Overcast,40,2013-04-12 13:13:00
8:33 AM,24.8,19.4,80,29.80,1.5,ENE,4.6,-,0.01,,Mostly Cloudy,60,2013-04-12 13:33:00
8:53 AM,24.8,19.4,80,29.80,1.2,ENE,5.8,-,0.02,Snow,Light Snow,60,2013-04-12 13:53:00
9:13 AM,24.8,19.4,80,29.80,2.0,NE,3.5,-,N/A,Snow,Light Snow,50,2013-04-12 14:13:00
9:33 AM,24.8,17.6,74,29.80,2.0,NE,5.8,-,N/A,Snow,Light Snow,50,2013-04-12 14:33:00
9:53 AM,26.6,17.6,69,29.80,4.0,NE,9.2,-,N/A,Snow,Light Snow,40,2013-04-12 14:53:00
10:13 AM,26.6,19.4,74,29.81,2.5,ENE,6.9,-,0.01,Snow,Light Snow,70,2013-04-12 15:13:00
10:34 AM,26.6,19.4,74,29.81,2.5,NNE,4.6,-,0.03,Snow,Light Snow,30,2013-04-12 15:34:00
10:53 AM,26.6,19.4,74,29.81,2.0,NE,4.6,-,0.04,Snow,Light Snow,50,2013-04-12 15:53:00
11:13 AM,26.6,17.6,69,29.81,2.5,NE,6.9,-,0.01,Snow,Light Snow,50,2013-04-12 16:13:00
11:33 AM,26.6,19.4,74,29.82,1.8,NNE,5.8,-,0.02,Snow,Light Snow,20,2013-04-12 16:33:00
11:53 AM,26.6,19.4,74,29.82,1.8,ENE,3.5,-,0.03,Snow,Light Snow,60,2013-04-12 16:53:00
12:13 PM,26.6,19.4,74,29.81,2.0,NNE,5.8,-,N/A,Snow,Light Snow,30,2013-04-12 17:13:00
12:33 PM,28.4,19.4,69,29.81,4.0,NE,5.8,-,N/A,Snow,Light Snow,40,2013-04-12 17:33:00
12:53 PM,28.4,19.4,69,29.81,5.0,East,5.8,-,N/A,Snow,Light Snow,100,2013-04-12 17:53:00
1:13 PM,28.4,17.6,64,29.80,5.0,NE,5.8,-,N/A,Snow,Light Snow,40,2013-04-12 18:13:00
1:33 PM,30.2,17.6,60,29.80,7.0,NE,4.6,-,N/A,Snow,Light Snow,40,2013-04-12 18:33:00
1:53 PM,30.2,17.6,60,29.79,10.0,Calm,Calm,-,N/A,,Mostly Cloudy,0,2013-04-12 18:53:00
2:13 PM,30.2,17.6,60,29.79,10.0,NE,5.8,-,N/A,,Mostly Cloudy,40,2013-04-12 19:13:00
2:33 PM,30.2,17.6,60,29.79,7.0,NNE,5.8,-,N/A,Snow,Light Snow,30,2013-04-12 19:33:00
2:53 PM,30.2,17.6,60,29.78,10.0,Calm,Calm,-,N/A,,Overcast,0,2013-04-12 19:53:00
3:13 PM,28.4,19.4,69,29.78,10.0,NNE,4.6,-,N/A,,Overcast,20,2013-04-12 20:13:00
3:33 PM,30.2,19.4,64,29.79,10.0,North,4.6,-,N/A,,Overcast,350,2013-04-12 20:33:00
3:53 PM,30.2,19.4,64,29.79,10.0,ENE,4.6,-,N/A,,Overcast,70,2013-04-12 20:53:00
4:13 PM,30.2,19.4,64,29.78,5.0,Calm,Calm,-,N/A,Snow,Light Snow,0,2013-04-12 21:13:00
4:33 PM,28.4,19.4,69,29.79,4.0,Calm,Calm,-,N/A,Snow,Light Snow,0,2013-04-12 21:33:00
4:53 PM,28.4,19.4,69,29.79,7.0,Calm,Calm,-,N/A,Snow,Light Snow,0,2013-04-12 21:53:00
5:13 PM,28.4,19.4,69,29.80,7.0,Calm,Calm,-,N/A,Snow,Light Snow,0,2013-04-12 22:13:00
5:33 PM,28.4,19.4,69,29.80,4.0,ENE,3.5,-,N/A,Snow,Light Snow,70,2013-04-12 22:33:00
5:53 PM,28.4,23.0,80,29.81,1.0,Calm,Calm,-,N/A,Snow,Light Snow,0,2013-04-12 22:53:00
6:13 PM,26.6,21.2,80,29.81,1.2,ENE,4.6,-,N/A,Snow,Light Snow,70,2013-04-12 23:13:00
6:33 PM,26.6,21.2,80,29.81,1.5,ENE,3.5,-,N/A,Snow,Light Snow,60,2013-04-12 23:33:00
6:54 PM,26.6,21.2,80,29.81,1.2,Calm,Calm,-,N/A,Snow,Light Snow,0,2013-04-12 23:54:00
7:13 PM,24.8,21.2,86,29.81,1.8,NE,5.8,-,N/A,Snow,Light Snow,50,2013-04-13 00:13:00
7:33 PM,24.8,19.4,80,29.82,1.8,ENE,3.5,-,N/A,Snow,Light Snow,70,2013-04-13 00:33:00
7:53 PM,24.8,19.4,80,29.82,2.0,Calm,Calm,-,N/A,Snow,Light Snow,0,2013-04-13 00:53:00
8:13 PM,23.0,17.6,80,29.82,5.0,ENE,4.6,-,N/A,,Overcast,60,2013-04-13 01:13:00
8:33 PM,23.0,17.6,80,29.82,7.0,ENE,5.8,-,N/A,,Overcast,70,2013-04-13 01:33:00
8:53 PM,23.0,17.6,80,29.83,10.0,Calm,Calm,-,N/A,,Overcast,0,2013-04-13 01:53:00
9:13 PM,23.0,17.6,80,29.83,5.0,Calm,Calm,-,N/A,,Overcast,0,2013-04-13 02:13:00
9:33 PM,23.0,19.4,86,29.83,3.0,Calm,Calm,-,N/A,,Mostly Cloudy,0,2013-04-13 02:33:00
9:53 PM,23.0,19.4,86,29.83,2.5,Calm,Calm,-,N/A,,Overcast,0,2013-04-13 02:53:00
10:13 PM,21.2,19.4,93,29.83,4.0,ENE,3.5,-,N/A,,Overcast,70,2013-04-13 03:13:00
10:33 PM,21.2,19.4,93,29.83,4.0,Calm,Calm,-,N/A,,Overcast,0,2013-04-13 03:33:00
10:53 PM,21.2,19.4,93,29.83,2.5,Calm,Calm,-,N/A,Snow,Light Snow,0,2013-04-13 03:53:00
11:13 PM,21.2,19.4,93,29.83,3.0,Calm,Calm,-,N/A,Snow,Light Snow,0,2013-04-13 04:13:00
11:33 PM,21.2,19.4,93,29.82,3.0,Calm,Calm,-,0.01,Snow,Light Snow,0,2013-04-13 04:33:00
11:53 PM,21.2,19.4,93,29.82,2.5,Calm,Calm,-,0.01,Snow,Light Snow,0,2013-04-13 04:53:00